Overview Statistics Trail Chart Weather Telemetry Raw packets
 

This is the latest recevied weather packets stored in our database for station/object K9ZOG. If no packets are shown the sender has not sent any weather packets the latest 10 day(s).

<< 4 5 6 7 8 9 10 >>
Time Temp. Humidity Pressure Rain* Wind** Luminosity Snow
1788534386 20.56° C 99% 1018.6 hPa 3.81 mm - 8 W/m² -
1788534085 20.56° C 99% 1018.1 hPa 3.3 mm - 9 W/m² -
1788533789 20.56° C 99% 1018.1 hPa 3.3 mm - 17 W/m² -
1788533487 20.56° C 99% 1018.4 hPa 3.3 mm - 15 W/m² -
1788533186 20.56° C 99% 1018.1 hPa 3.3 mm - 25 W/m² -
1788532885 20.56° C 99% 1018 hPa 3.3 mm - 32 W/m² -
1788532588 20.56° C 99% 1018.2 hPa 2.79 mm - 43 W/m² -
1788532285 21.11° C 99% 1018.3 hPa 2.79 mm - 31 W/m² -
1788531990 21.11° C 99% 1018.5 hPa 2.54 mm - 29 W/m² -
1788531688 21.11° C 99% 1018.7 hPa 2.54 mm - 24 W/m² -
1788531387 21.11° C 99% 1018.8 hPa 2.03 mm - 18 W/m² -
1788531086 21.11° C 99% 1019.6 hPa 1.78 mm - 14 W/m² -
1788530786 21.11° C 99% 1020 hPa 0.25 mm - 12 W/m² -
1788530486 21.11° C 99% 1019.5 hPa 0.25 mm - 16 W/m² -
1788530187 21.11° C 99% 1019.4 hPa 1.78 mm - 34 W/m² -
1788529885 21.11° C 99% 1018.8 hPa 3.05 mm - 32 W/m² -
1788529587 21.11° C 99% 1018.5 hPa 5.08 mm - 49 W/m² -
1788529285 21.11° C 99% 1018.5 hPa 8.38 mm - 27 W/m² -
1788528986 21.11° C 99% 1018.7 hPa 8.64 mm - 36 W/m² -
1788528685 21.11° C 98% 1019 hPa 8.64 mm - 24 W/m² -
1788528387 21.11° C 98% 1018.9 hPa 9.14 mm - 27 W/m² -
1788528087 21.11° C 98% 1019.2 hPa 10.92 mm - 30 W/m² -
1788527786 21.11° C 98% 1019.1 hPa 11.18 mm - 17 W/m² -
1788527486 21.11° C 98% 1019.3 hPa 11.68 mm - 12 W/m² -
1788527186 21.11° C 98% 1019.2 hPa 10.67 mm - 7 W/m² -

* Rain latest hour (hover to see other rain measurements)
** Current wind speed in m/s (hover to see current wind gust speed)